Simultaneous Nadir Overpasses (SNOs) Predictions

Prediction of SNOs between GOES-16 and METOP-B Satellite Orbit:

Table of predicted SNOs for the next 14.0 days since TLE Epoch: 3/16/2024
Index Date Time (GOES-16) GOES-16 Lat,Lon METOP-B Lat,Lon Distance(km) Time Diff (sec)
1 03/17/2024 02:35:02 -0.05, -75.20 -0.49, -77.17 224.49 80
2 03/18/2024 02:11:43 -0.04, -75.20 0.65, -72.19 344.05 80
3 03/19/2024 14:30:36 0.04, -75.23 0.39, -76.76 174.82 80
4 03/20/2024 14:12:37 0.04, -75.23 -0.76, -71.78 394.40 80
5 03/22/2024 02:31:38 -0.04, -75.24 -0.29, -76.38 130.50 80
6 03/23/2024 02:08:18 -0.04, -75.25 0.79, -71.39 439.19 80
7 03/24/2024 14:27:11 0.04, -75.29 0.18, -75.98 78.14 80
8 03/25/2024 14:09:12 0.04, -75.30 -0.91, -70.98 492.11 80
9 03/27/2024 02:28:12 -0.04, -75.32 -0.12, -75.59 31.48 80
10 03/29/2024 14:26:26 0.04, -75.38 -0.01, -75.18 22.18 80
